Location: Lancaster
(34.6980°N, 118.1360°W)
Time: 12:13:10
(UTC-08:00)

Vanguard 2 Rocket - Visible Passes

Search period start: 23 November 2017 00:00
Search period end: 03 December 2017 00:00
Orbit: 556 x 3326 km, 32.9° (Epoch: 23 November)

Date Brightness Start Highest point End Pass type
(mag) Time Alt. Az. Time Alt. Az. Time Alt. Az.
23 Nov 10.5 00:42:16 11° E 00:42:16 11° E 00:42:31 10° E visible
23 Nov 8.6 02:48:05 68° ESE 02:48:05 68° ESE 02:56:13 10° E visible
23 Nov 8.0 04:53:53 27° W 05:01:28 73° SSW 05:08:43 10° ESE visible
23 Nov 10.8 20:57:30 10° S 21:00:01 14° S 21:00:01 14° S visible
24 Nov 9.6 01:51:55 36° E 01:51:55 36° E 01:56:55 10° E visible
24 Nov 8.3 03:57:44 55° W 04:01:19 81° S 04:09:57 10° ESE visible
24 Nov 8.3 06:05:03 10° W 06:15:24 45° SSW 06:21:28 10° SE visible
24 Nov 10.8 20:01:19 10° SSE 20:03:49 12° SSE 20:03:49 12° SSE visible
24 Nov 10.9 22:08:09 10° SSW 22:09:37 13° SSW 22:09:37 13° SSW visible
25 Nov 10.4 00:55:46 16° E 00:55:46 16° E 00:57:17 10° E visible
25 Nov 8.5 03:01:35 79° SE 03:01:35 79° SE 03:10:55 10° E visible
25 Nov 8.2 05:07:23 22° W 05:15:55 61° SSW 05:23:11 10° SE visible
25 Nov 10.6 21:08:43 10° SSW 21:13:28 19° S 21:13:28 19° S visible
25 Nov10.923:59:37ENE23:59:37ENE23:19:16SWvisible
26 Nov 9.3 02:05:25 44° E 02:05:25 44° E 02:11:36 10° E visible
26 Nov 8.3 04:11:14 47° W 04:15:54 74° SSW 04:24:33 10° ESE visible
26 Nov 10.5 20:10:28 10° S 20:17:21 20° SSE 20:17:21 20° SSE visible
26 Nov 10.8 22:21:07 10° SW 22:23:09 15° SW 22:23:09 15° SW visible
27 Nov 10.2 01:09:16 21° E 01:09:16 21° E 01:12:00 10° E visible
27 Nov 8.5 03:15:05 81° SSW 03:15:21 81° S 03:25:36 10° ESE visible
27 Nov 8.5 05:20:53 18° W 05:30:08 48° SSW 05:37:23 10° SE visible
27 Nov 10.6 19:14:29 10° SSE 19:21:16 14° SE 19:21:16 14° SE visible
27 Nov 10.5 21:21:06 10° SSW 21:27:04 24° SSW 21:27:04 24° SSW visible
28 Nov10.800:13:07E00:13:07E23:32:53WSWvisible
28 Nov 9.2 02:18:56 52° E 02:18:56 52° E 02:26:19 10° E visible
28 Nov 8.5 04:24:44 40° W 04:30:20 63° SSW 04:38:59 10° SE visible
28 Nov 10.2 20:22:00 10° SSW 20:31:01 28° SSE 20:31:01 28° SSE visible
28 Nov 10.8 22:34:41 10° SW 22:36:50 16° SW 22:36:50 16° SW visible
29 Nov 10.0 01:22:48 27° E 01:22:48 27° E 01:26:41 10° E visible
29 Nov 8.6 03:28:37 71° SW 03:29:55 75° SSW 03:40:11 10° ESE visible
29 Nov 8.9 05:34:26 14° W 05:44:03 35° SW 05:51:10 10° SSE visible
29 Nov 10.3 19:24:03 10° S 19:35:00 23° SE 19:35:00 23° SE visible
29 Nov 10.3 21:34:14 10° SW 21:40:49 28° SSW 21:40:49 28° SSW visible
30 Nov 10.7 00:26:41 10° E 00:26:41 10° E 23:46:38 - WSW visible
30 Nov 9.0 02:32:29 60° ESE 02:32:29 60° ESE 02:40:58 10° ESE visible
30 Nov 8.7 04:38:18 33° W 04:44:28 50° SSW 04:53:08 10° SE visible
30 Nov 10.5 18:28:25 10° SSE 18:35:50 14° SE 18:39:00 13° ESE visible
30 Nov 10.0 20:34:35 10° SSW 20:44:49 37° S 20:44:49 37° S visible
30 Nov 10.8 22:48:41 10° WSW 22:50:38 15° WSW 22:50:38 15° WSW visible
01 Dec 9.9 01:36:24 32° E 01:36:24 32° E 01:41:23 10° E visible
01 Dec 8.7 03:42:13 60° WSW 03:44:16 64° SSW 03:54:33 10° SE visible
01 Dec 9.3 05:48:01 10° W 05:57:40 24° SW 06:04:19 10° S visible
01 Dec 10.0 19:35:49 10° SSW 19:48:48 33° SE 19:48:48 33° SE visible
01 Dec 10.3 21:47:55 10° SW 21:54:38 30° SW 21:54:38 30° SW visible
02 Dec 10.6 00:40:19 14° E 00:40:19 14° E 00:41:22 10° E visible
02 Dec 9.0 02:46:08 64° SE 02:46:08 64° SE 02:55:31 10° ESE visible
02 Dec 9.1 04:51:57 27° W 04:58:18 38° SW 05:06:51 10° SSE visible
02 Dec 10.2 18:38:12 10° S 18:49:14 23° SE 18:52:49 22° ESE visible
02 Dec 9.8 20:47:53 10° SW 20:58:38 44° SSW 20:58:38 44° SSW visible
02 Dec 10.9 23:03:01 10° WSW 23:44:15 - E 23:04:28 14° WSW visible
